Notices

What's New in latest Release from April 7th, 2021:

- Updated Glossary, including Speed of Maximum Gust, and Total Hourly Precipitation

- Updated national and regional climate services offices contacts and prices information

- Addition of station inventory lists for 1981-2010, 1971-2000, and 1961-1990 Normals.

If you haven't already, please take our survey and provide feedback about our website: https://eccc.sondage-survey.ca/f/LanguageSelection.aspx?s=442ca660-fcf1-47c0-95a9-59707d6fd709

Hourly Data Report for March 26, 2004

SHERBROOKE A
QUEBEC

45°26'00.000" N
71°41'00.000" W
241.40 m
7028124
71610
YSC

Download Data

Hourly Data (March 2004)
Hourly Data Report for March 26, 2004
TIME
LST
Temp Definition
°C
Dew Point Definition
°C
Rel Hum Definition
%
Precip. Amount Definition
mm

Wind Dir Definition
10's deg

Wind Spd Definition
km/h
Visibility Definition
km
Stn Press Definition
kPa
Hmdx Definition


Wind Chill Definition


Weather Definition


00:00 2.5 2.2 98     0 1.9 100.12      
01:00 3.1 2.7 97   8 6 4.8 100.12      
02:00 2.8 2.3 97   10 6 3.1 100.08      
03:00 3.1 2.7 97   11 7 5.6 100.02      
04:00 3.4 2.8 96   13 7 6.4 99.99      
05:00 2.7 2.0 95     0 2.4 100.03      
06:00 3.5 3.2 98     0 4.0 100.03      
07:00 3.2 2.9 98   11 4 2.3 100.02      
08:00 6.0 4.4 89   3 4 16.1 99.99     Cloudy
09:00 5.8 4.8 93   30 4 16.1 99.96     Cloudy
10:00 6.4 5.1 91     0 16.1 99.89     Cloudy
11:00 10.0 5.9 76   17 9 19.3 99.80     Cloudy
12:00 11.7 5.8 67   16 15 19.3 99.72     Mostly Cloudy
13:00 13.4 6.7 64   17 15 19.3 99.60     Mostly Cloudy
14:00 15.2 7.0 58   19 19 19.3 99.48     Mainly Clear
15:00 14.6 6.6 59   20 17 24.1 99.40     Mostly Cloudy
16:00 14.5 6.6 59   19 7 19.3 99.31     Mostly Cloudy
17:00 10.7 5.1 68   18 6 24.1 99.26     Mostly Cloudy
18:00 9.8 6.6 80   15 7 9.7 99.24     Moderate Rain
19:00 11.1 6.7 74   17 7 15.0 99.17      
20:00 8.5 6.6 88   34 11 15.0 99.18     Rain
21:00 7.6 6.9 95   14 7 8.0 99.18     Rain
22:00 7.0 6.6 97   13 7 3.2 99.11     Rain
23:00 7.4 7.2 99   21 4 1.3 99.04     Rain

Notes on Data Quality.

Legend

  • E = Estimated
  • M = Missing
  • NA = Not Available*
  • [empty] = Indicates an unobserved value
Date modified: